CMS-01

Last updated on Jan. 17, 2021, 12:02 a.m. UTC

1 47256U 20099A   21016.47659226 -.00000192  00000-0  00000-0 0  9998
2 47256   0.0525 254.7808 0000558 145.5863 328.5791  1.00446263   362
UTC
Height (km)
Latitude
Longitude
Inclination
Orbital Period
UTC large
Height (km)
Speed (km/s)
/
Latitude / Longitude
Inclination (degrees)
Orbital Period (minutes)
Azimuth
Elevation
Range (km)
Doppler Factor
iOS Compass Heading
iOS Angle

Next 30 passes for location: Hong Kong

Rise time Rise Azimuth (degrees) Set time Set Azimuth (degrees) Duration Max altitude (degrees)

No matching passes for this satellites